Location: Newark
(42.9858°N, 0.6717°E)
Time: 10:25:39
(UTC+00:00)

A-11 Canister half - Visible Passes

Search period start: 20 November 2019 00:00
Search period end: 30 November 2019 00:00
Orbit: 1514 x 1685 km, 47.2° (Epoch: 19 November)

Date Brightness Start Highest point End Pass type
(mag) Time Alt. Az. Time Alt. Az. Time Alt. Az.
20 Nov 9.2 17:39:10 10° SW 17:49:14 78° SSE 17:57:03 20° ENE visible
20 Nov 9.1 19:44:34 10° W 19:54:45 71° N 19:55:15 70° NNE visible
20 Nov 10.7 21:50:20 10° WNW 21:53:26 23° WNW 21:53:26 23° WNW visible
21 Nov 9.2 17:16:17 10° SW 17:26:17 76° SSE 17:35:21 14° ENE visible
21 Nov 9.1 19:21:34 10° W 19:31:44 71° N 19:33:33 61° NE visible
21 Nov 10.4 21:27:20 10° WNW 21:31:44 30° WNW 21:31:44 30° WNW visible
22 Nov 9.3 16:53:23 10° SW 17:03:21 73° SSE 17:13:30 10° ENE visible
22 Nov 9.2 18:58:35 10° W 19:08:44 72° N 19:11:51 50° ENE visible
22 Nov 10.1 21:04:22 10° WNW 21:10:02 39° WNW 21:10:02 39° WNW visible
23 Nov 9.2 18:35:35 10° W 18:45:43 73° N 18:50:08 40° ENE visible
23 Nov 9.7 20:41:23 10° WNW 20:48:19 49° WNW 20:48:19 49° WNW visible
24 Nov 9.2 18:12:35 10° W 18:22:43 74° N 18:28:25 31° ENE visible
24 Nov 9.4 20:18:24 10° WNW 20:26:37 61° NW 20:26:37 61° NW visible
24 Nov 11.2 22:23:46 10° WNW 22:24:49 14° WNW 22:24:49 14° WNW visible
25 Nov 9.2 17:49:36 10° W 17:59:43 75° NNW 18:06:43 24° ENE visible
25 Nov 9.1 19:55:25 10° WNW 20:04:55 73° NNW 20:04:55 73° NNW visible
25 Nov 10.9 22:00:47 10° WNW 22:03:06 19° WNW 22:03:06 19° WNW visible
26 Nov 9.2 17:26:37 10° W 17:36:43 76° NNW 17:45:02 18° ENE visible
26 Nov 9.0 19:32:26 10° WNW 19:42:38 74° N 19:43:14 72° NE visible
26 Nov 10.6 21:37:48 10° WNW 21:41:26 26° WNW 21:41:26 26° WNW visible
27 Nov 9.3 17:03:40 10° WSW 17:13:43 77° NNW 17:23:23 12° ENE visible
27 Nov 9.0 19:09:27 10° WNW 19:19:38 73° N 19:21:35 61° ENE visible
27 Nov 10.3 21:14:50 10° WNW 21:19:46 34° WNW 21:19:46 34° WNW visible
28 Nov 9.3 16:40:42 10° WSW 16:50:44 79° NNW 17:01:00 10° ENE visible
28 Nov 9.1 18:46:29 10° WNW 18:56:38 72° N 18:59:56 48° ENE visible
28 Nov 9.9 20:51:52 10° WNW 20:58:08 43° WNW 20:58:08 43° WNW visible
29 Nov 9.1 18:23:30 10° WNW 18:33:37 72° N 18:38:20 37° E visible
29 Nov 9.5 20:28:54 10° WNW 20:36:32 56° W 20:36:32 56° W visible
